Find Ekspress-2

NORAD ID: 23319 Int'l Des: 1994-067 Owner: GPKS Country: RU operational
HEOCIRCULAR

リアルタイム位置

3D地球を読み込み中...

Ekspress-2について

説明を読み込み中...

次回通過

Passes for default location (London). Set your location on the main map for personalized predictions.

高度履歴

Loading altitude history...

軌道要素

1 23319U 94067A 26106.80547030 .00000116 00000-0 00000+0 0 9993
2 23319 14.5027 2.4793 0005933 271.0597 263.8839 0.99822512114963
Epoch: Apr 16, 2026 • Age: 16 hours

現在のステータス

高度 35932.8 km
速度 3.07 km/s
衛星直下点 12.28°N, 40.61°E
打ち上げ日 Oct 13, 1994
運用期間 31.5 years
タイプ other

技術仕様

分類 Payload
質量 2500.00 kg
乾燥質量 2200.00 kg
総質量 2500.00 kg
長さ 2.00 m
直径 2.00 m
スパン 27.00 m
形状 Cyl + 2 Pan
製造者 NPOPMR
バスタイプ Ekspress
フェーズステータス In Orbit
所有者/国 GPKS/RU

Most Searched